Regional Weather Roundup
Issued by NWS

Home | Current Version | Previous Version | Text Only | Print | Product List | Glossary On
Versions: 1 2 3 4 5 6 7 8 9 10 11 12 13 14 15 16 17 18 19 20 21 22 23 24 25 26 27 28 29 30 31 32 33 34 35 36 37 38 39 40 41 42 43 44 45 46 47 48 49 50
000
ASUS46 KSTO 280615
RWRCA

NORTHERN AND CENTRAL CA REGIONAL WEATHER ROUNDUP
NATIONAL WEATHER SERVICE SACRAMENTO CA
1000 PM PST MON FEB 27 2017

NOTE: FAIR INDICATES FEW OR NO CLOUDS BELOW 12,000 FEET WITH NO
SIGNIFICANT WEATHER AND/OR OBSTRUCTIONS TO VISIBILITY.

CAZ001-003-280700-
NORTHWEST AREA

CITY           SKY/WX    TMP DP  RH WIND       PRES   REMARKS
CRESCENT CITY  LGT RAIN  44  40  85 SE9       30.04S
UKIAH          CLEAR     42  35  76 N5        30.02R
$$

CAZ006-505>513-280700-
BAY AREA

CITY           SKY/WX    TMP DP  RH WIND       PRES   REMARKS
SANTA ROSA     CLEAR     44  35  70 CALM      30.00R
SAN RAFAEL     N/A       46  MM  MM MISG
NAPA           CLEAR     42  37  82 CALM      29.99R
CONCORD        CLEAR     46  38  73 S3        29.99S
OAKLAND CITY   N/A      MM  MM  MM MISG
OAKLAND        PTCLDY    49  40  71 NW7       30.01R
SAN FRAN CITY  N/A       47  MM  66 MISG
SAN FRAN ARPT  PTCLDY    49  38  65 NW8       30.00R
LIVERMORE      CLEAR     44  36  73 S3        29.99R
HAYWARD        CLEAR     47  35  63 CALM      30.00R
REDWOOD CITY   N/A       46  MM  75 MISG
MOFFETT ARPT   CLEAR     46  38  73 CALM      30.02R
SAN JOSE ARPT  PTCLDY    46  37  71 W7        30.02R
$$
CAZ034-037-514>518-280700-
CENTRAL COAST

CITY           SKY/WX    TMP DP  RH WIND       PRES   REMARKS
WATSONVILLE    CLEAR     41  36  82 NW5       30.01R
SALINAS        CLEAR     46  38  73 SW6       30.01R
MONTEREY       CLEAR     49  38  65 W9        30.02R
SAN LUIS OBISP CLEAR     49  40  71 W6        29.95R
SANTA MARIA    CLEAR     42  40  92 W3        29.95R
$$
CAZ015-016-280700-
NORTHERN SACRAMENTO VALLEY

CITY           SKY/WX    TMP DP  RH WIND       PRES   REMARKS
REDDING        CLEAR     40  38  93 N3        29.97R
RED BLUFF      MOCLDY    42  36  79 NW3       29.99R
OROVILLE       PTCLDY    43  34  70 CALM      29.99R
$$
CAZ016>018-280700-
SOUTHERN SACRAMENTO VALLEY

CITY           SKY/WX    TMP DP  RH WIND       PRES   REMARKS
AUBURN         CLEAR     37  32  81 E7        29.96R WCI  32
BEALE AFB      CLEAR     41  34  74 NE5       29.97R
LINCOLN        FAIR      36  34  93 E5        29.97R WCI  32
MARYSVILLE     CLEAR     43  36  76 E5        29.98R
SAC INTL ARPT  CLEAR     44  34  67 CALM      29.97R
MATHER AIRPORT PTCLDY    37  32  81 CALM      29.98R
DOWNTOWN SAC   N/A       45  MM  MM MISG
SAC EXEC ARPT  CLEAR     42  35  76 CALM      29.98R
VACAVILLE      CLEAR     47  36  65 W5        29.98R
TRAVIS AFB     CLEAR     40  37  89 W8        29.95S WCI  34
$$
CAZ019>021-280700-
SAN JOAQUIN VALLEY

CITY           SKY/WX    TMP DP  RH WIND       PRES   REMARKS
STOCKTON       CLEAR     40  35  83 W3        29.98R
MODESTO        CLEAR     46  36  68 NW9       29.98R
MERCED         CLEAR     41  31  67 VRB3      29.97R
LEMOORE        PTCLDY    42  35  76 NW12      29.97R
FRESNO         CLEAR     46  33  60 NW10      29.96R
HANFORD        CLEAR     43  37  79 NW7       29.96R
PORTERVILLE    PTCLDY    44  38  79 N7        29.95R
BAKERSFIELD    CLOUDY    50  41  71 CALM      29.94R
$$
CAZ011-012-071-280700-
NORTHERN MOUNTAINS

CITY           SKY/WX    TMP DP  RH WIND       PRES   REMARKS
YREKA          CLOUDY    35  24  64 CALM      29.94R
MOUNT SHASTA   FLURRIES  32  26  78 VRB3      29.89R
ALTURAS        SNOW      27  25  92 NW9       29.85R VSB 1/2 WCI  18
$$
CAZ011-012-071-280700-
SIERRA NEVADA MTNS

CITY           SKY/WX    TMP DP  RH WIND       PRES   REMARKS
BLUE CANYON    CLEAR     25  22  88 CALM      29.88R
TRUCKEE        CLEAR     18  14  86 S3        29.86S
TAHOE VLY ARPT CLOUDY    17  13  84 CALM      29.84R
MAMMOTH LAKES  FAIR      19  11  73 CALM      29.79R
$$



USA.gov is the U.S. government's official web portal to all federal, state and local government web resources and services.